,,,PA_Meas_PMT16A,,PR_Meas_QMR101_102,,RH_Meas_QMH101,,SR_Meas_QMS101,,TA_Meas_QMH101,,GenWind,,GenWind,
date,time,status,PA,status,PR,status,RH,status,SR,status,TA,status,DirAvg,status,SpdAvg,
2011-06-20, 00:00:04,VALID,999.758,VALID,0,VALID,84.231,VALID,0,VALID,25.2607,VALID,6,VALID,0.269141,
2011-06-20, 00:01:04,VALID,999.779,VALID,0,VALID,84.3607,VALID,0,VALID,25.2217,VALID,6,VALID,0.103906,
2011-06-20, 00:02:04,VALID,999.725,VALID,0,VALID,84.2997,VALID,0,VALID,25.1826,VALID,6,VALID,0.000390625,
2011-06-20, 00:03:04,VALID,999.74,VALID,0,VALID,84.0708,VALID,0,VALID,25.1612,VALID,6,VALID,0.198047,
2011-06-20, 00:04:04,VALID,999.719,VALID,0,VALID,83.9487,VALID,0,VALID,25.1612,VALID,24,VALID,1.14727,
2011-06-20, 00:05:04,VALID,999.712,VALID,0,VALID,83.9563,VALID,0,VALID,25.1631,VALID,1,VALID,1.19141,
2011-06-20, 00:06:04,VALID,999.726,VALID,0,VALID,84.1318,VALID,0,VALID,25.1826,VALID,360,VALID,1.24102,
2011-06-20, 00:07:04,VALID,999.736,VALID,0,VALID,84.3531,VALID,0,VALID,25.1436,VALID,360,VALID,1.01992,
2011-06-20, 00:08:04,VALID,999.745,VALID,0,VALID,84.582,VALID,0,VALID,25.1241,VALID,6,VALID,0.690234,
2011-06-20, 00:09:04,VALID,999.771,VALID,0,VALID,84.9329,VALID,0,VALID,25.1045,VALID,8,VALID,0.546094,
2011-06-20, 00:10:04,VALID,999.796,VALID,0,VALID,84.9406,VALID,0,VALID,25.0655,VALID,8,VALID,0.588281,
2011-06-20, 00:11:04,VALID,999.759,VALID,0,VALID,84.9787,VALID,0,VALID,25.0655,VALID,8,VALID,0.589844,
2011-06-20, 00:12:04,VALID,999.766,VALID,0,VALID,85.0474,VALID,0,VALID,25.0655,VALID,38,VALID,0.742969,
2011-06-20, 00:13:04,VALID,999.765,VALID,0,VALID,85.3373,VALID,0,VALID,25.085,VALID,57,VALID,1.06055,
2011-06-20, 00:14:04,VALID,999.77,VALID,0,VALID,85.116,VALID,0,VALID,25.0655,VALID,51,VALID,1.03047,
2011-06-20, 00:15:04,VALID,999.764,VALID,0,VALID,85.116,VALID,0,VALID,25.046,VALID,44,VALID,1.01875,
2011-06-20, 00:16:04,VALID,999.779,VALID,0,VALID,84.6812,VALID,0,VALID,25.0479,VALID,34,VALID,1.14375,
2011-06-20, 00:17:04,VALID,999.755,VALID,0,VALID,84.5438,VALID,0,VALID,25.0479,VALID,28,VALID,1.0582,
2011-06-20, 00:18:04,VALID,999.753,VALID,0,VALID,84.8948,VALID,0,VALID,25.0655,VALID,38,VALID,0.871484,
2011-06-20, 00:19:04,VALID,999.721,VALID,0,VALID,85.0092,VALID,0,VALID,25.0655,VALID,38,VALID,0.710547,
2011-06-20, 00:20:04,VALID,999.684,VALID,0,VALID,85.1466,VALID,0,VALID,25.0869,VALID,38,VALID,0.534766,
2011-06-20, 00:21:04,VALID,999.697,VALID,0,VALID,85.467,VALID,0,VALID,25.0655,VALID,38,VALID,0.458203,
2011-06-20, 00:22:04,VALID,999.646,VALID,0,VALID,85.9477,VALID,0,VALID,25.0869,VALID,38,VALID,0.663281,
2011-06-20, 00:23:04,VALID,999.645,VALID,0,VALID,86.4054,VALID,0,VALID,25.085,VALID,64,VALID,1.20859,
2011-06-20, 00:24:04,VALID,999.596,VALID,0,VALID,86.7564,VALID,0,VALID,25.0674,VALID,81,VALID,1.47148,
2011-06-20, 00:25:04,VALID,999.616,VALID,0,VALID,87.0769,VALID,0,VALID,25.0479,VALID,83,VALID,1.62578,
2011-06-20, 00:26:04,VALID,999.619,VALID,0,VALID,87.2829,VALID,0,VALID,25.0088,VALID,77,VALID,1.7293,
2011-06-20, 00:27:04,VALID,999.615,VALID,0,VALID,87.4278,VALID,0,VALID,24.9893,VALID,75,VALID,1.5418,
2011-06-20, 00:28:04,VALID,999.595,VALID,0,VALID,87.672,VALID,0,VALID,24.9698,VALID,76,VALID,1.36328,
2011-06-20, 00:29:04,VALID,999.62,VALID,0,VALID,87.9848,VALID,0,VALID,24.9503,VALID,86,VALID,1.39492,
2011-06-20, 00:30:04,VALID,999.638,VALID,0,VALID,88.1984,VALID,0,VALID,24.9308,VALID,87,VALID,1.33047,
2011-06-20, 00:31:04,VALID,999.641,VALID,0,VALID,88.3129,VALID,0,VALID,24.9112,VALID,88,VALID,1.17969,
2011-06-20, 00:32:04,VALID,999.688,VALID,0,VALID,88.4273,VALID,0,VALID,24.8917,VALID,94,VALID,0.920313,
2011-06-20, 00:33:04,VALID,999.702,VALID,0,VALID,88.6333,VALID,0,VALID,24.8917,VALID,94,VALID,0.99375,
2011-06-20, 00:34:04,VALID,999.731,VALID,0,VALID,88.8164,VALID,0,VALID,24.8917,VALID,99,VALID,1.02383,
2011-06-20, 00:35:04,VALID,999.716,VALID,0,VALID,89.03,VALID,0,VALID,24.8527,VALID,98,VALID,1.24453,
2011-06-20, 00:36:04,VALID,999.724,VALID,0,VALID,89.2055,VALID,0,VALID,24.8332,VALID,110,VALID,1.16523,
2011-06-20, 00:37:04,VALID,999.755,VALID,0,VALID,89.3734,VALID,0,VALID,24.8136,VALID,116,VALID,0.958594,
2011-06-20, 00:38:04,VALID,999.717,VALID,0,VALID,89.5717,VALID,0,VALID,24.8136,VALID,118,VALID,1.33906,
2011-06-20, 00:39:04,VALID,999.717,VALID,0,VALID,89.8006,VALID,0,VALID,24.7746,VALID,115,VALID,1.31953,
2011-06-20, 00:40:04,VALID,999.727,VALID,0,VALID,89.9532,VALID,0,VALID,24.7356,VALID,131,VALID,1.23086,
2011-06-20, 00:41:04,VALID,999.698,VALID,0,VALID,90.0982,VALID,0,VALID,24.7356,VALID,131,VALID,1.03906,
2011-06-20, 00:42:04,VALID,999.69,VALID,0,VALID,90.1897,VALID,0,VALID,24.716,VALID,128,VALID,1.04961,
2011-06-20, 00:43:04,VALID,999.685,VALID,0,VALID,90.1974,VALID,0,VALID,24.7356,VALID,129,VALID,0.747656,
2011-06-20, 00:44:04,VALID,999.637,VALID,0,VALID,90.1668,VALID,0,VALID,24.7356,VALID,129,VALID,0.498437,
2011-06-20, 00:45:04,VALID,999.657,VALID,0,VALID,90.1287,VALID,0,VALID,24.7551,VALID,129,VALID,0.565625,
2011-06-20, 00:46:04,VALID,999.624,VALID,0,VALID,90.1058,VALID,0,VALID,24.7337,VALID,129,VALID,0.649609,
2011-06-20, 00:47:04,VALID,999.648,VALID,0,VALID,90.0448,VALID,0,VALID,24.7551,VALID,131,VALID,0.941016,
2011-06-20, 00:48:04,VALID,999.652,VALID,0,VALID,89.9914,VALID,0,VALID,24.7746,VALID,137,VALID,1.00937,
2011-06-20, 00:49:04,VALID,999.649,VALID,0,VALID,89.8388,VALID,0,VALID,24.7746,VALID,131,VALID,1.03594,
2011-06-20, 00:50:04,VALID,999.627,VALID,0,VALID,89.6023,VALID,0,VALID,24.7941,VALID,113,VALID,0.852734,
2011-06-20, 00:51:04,VALID,999.608,VALID,0,VALID,89.4497,VALID,0,VALID,24.8332,VALID,106,VALID,0.879687,
2011-06-20, 00:52:04,VALID,999.588,VALID,0,VALID,89.2894,VALID,0,VALID,24.8332,VALID,93,VALID,1.00469,
2011-06-20, 00:53:04,VALID,999.575,VALID,0,VALID,89.1826,VALID,0,VALID,24.8527,VALID,106,VALID,1.01953,
2011-06-20, 00:54:04,VALID,999.548,VALID,0,VALID,89.0071,VALID,0,VALID,24.8332,VALID,122,VALID,1.46719,
2011-06-20, 00:55:04,VALID,999.531,VALID,0,VALID,89.0377,VALID,0,VALID,24.8332,VALID,128,VALID,1.54102,
2011-06-20, 00:56:04,VALID,999.508,VALID,0,VALID,89.2132,VALID,0,VALID,24.8136,VALID,120,VALID,1.29453,
2011-06-20, 00:57:04,VALID,999.496,VALID,0,VALID,89.3352,VALID,0,VALID,24.8332,VALID,132,VALID,1.27578,
2011-06-20, 00:58:04,VALID,999.467,VALID,0,VALID,89.4115,VALID,0,VALID,24.8136,VALID,134,VALID,1.24766,
2011-06-20, 00:59:04,VALID,999.477,VALID,0,VALID,89.4268,VALID,0,VALID,24.7941,VALID,141,VALID,1.18984,
2011-06-20, 01:00:04,VALID,999.453,VALID,0,VALID,89.4191,VALID,0,VALID,24.7941,VALID,150,VALID,1.46094,
2011-06-20, 01:01:04,VALID,999.467,VALID,0,VALID,89.1521,VALID,0,VALID,24.7941,VALID,152,VALID,1.86797,
2011-06-20, 01:02:04,VALID,999.427,VALID,0,VALID,88.8546,VALID,0,VALID,24.8136,VALID,157,VALID,1.73555,
2011-06-20, 01:03:04,VALID,999.428,VALID,0,VALID,88.6943,VALID,0,VALID,24.8722,VALID,147,VALID,1.87969,
2011-06-20, 01:04:04,VALID,999.408,VALID,0,VALID,88.557,VALID,0,VALID,24.8917,VALID,142,VALID,1.39219,
2011-06-20, 01:05:04,VALID,999.445,VALID,0,VALID,88.4197,VALID,0,VALID,24.8703,VALID,143,VALID,1.64961,
2011-06-20, 01:06:04,VALID,999.438,VALID,0,VALID,88.1984,VALID,0,VALID,24.9112,VALID,147,VALID,1.60352,
2011-06-20, 01:07:04,VALID,999.424,VALID,0,VALID,87.9848,VALID,0,VALID,24.9308,VALID,140,VALID,1.9418,
2011-06-20, 01:08:04,VALID,999.399,VALID,0,VALID,87.9085,VALID,0,VALID,24.9112,VALID,134,VALID,1.38281,
2011-06-20, 01:09:04,VALID,999.417,VALID,0,VALID,87.9237,VALID,0,VALID,24.8917,VALID,129,VALID,1.47891,
2011-06-20, 01:10:04,VALID,999.401,VALID,0,VALID,87.8093,VALID,0,VALID,24.8722,VALID,117,VALID,1.58906,
2011-06-20, 01:11:04,VALID,999.411,VALID,0,VALID,88,VALID,0,VALID,24.8332,VALID,116,VALID,1.55195,
2011-06-20, 01:12:04,VALID,999.367,VALID,0,VALID,88.1679,VALID,0,VALID,24.8136,VALID,117,VALID,1.63516,
2011-06-20, 01:13:04,VALID,999.371,VALID,0,VALID,88.2976,VALID,0,VALID,24.7746,VALID,124,VALID,1.47344,
2011-06-20, 01:14:04,VALID,999.356,VALID,0,VALID,88.3434,VALID,0,VALID,24.7551,VALID,119,VALID,1.42266,
2011-06-20, 01:15:04,VALID,999.362,VALID,0,VALID,88.3968,VALID,0,VALID,24.7356,VALID,125,VALID,1.27188,
2011-06-20, 01:16:04,VALID,999.363,VALID,0,VALID,88.4807,VALID,0,VALID,24.6946,VALID,122,VALID,1.11797,
2011-06-20, 01:17:04,VALID,999.36,VALID,0,VALID,88.6867,VALID,0,VALID,24.6751,VALID,116,VALID,0.901172,
2011-06-20, 01:18:04,VALID,999.365,VALID,0,VALID,88.9614,VALID,0,VALID,24.677,VALID,105,VALID,0.857422,
2011-06-20, 01:19:04,VALID,999.334,VALID,0,VALID,89.1216,VALID,0,VALID,24.677,VALID,104,VALID,0.759375,
2011-06-20, 01:20:04,VALID,999.354,VALID,0,VALID,89.2666,VALID,0,VALID,24.677,VALID,98,VALID,0.750781,
2011-06-20, 01:21:04,VALID,999.364,VALID,0,VALID,89.3428,VALID,0,VALID,24.677,VALID,96,VALID,0.857813,
2011-06-20, 01:22:04,VALID,999.362,VALID,0,VALID,89.4268,VALID,0,VALID,24.6575,VALID,96,VALID,0.6,
2011-06-20, 01:23:04,VALID,999.378,VALID,0,VALID,89.5336,VALID,0,VALID,24.6361,VALID,96,VALID,0.485938,
2011-06-20, 01:24:04,VALID,999.349,VALID,0,VALID,89.5946,VALID,0,VALID,24.638,VALID,96,VALID,0,
2011-06-20, 01:25:04,VALID,999.363,VALID,0,VALID,89.6633,VALID,0,VALID,24.5971,VALID,96,VALID,0,
2011-06-20, 01:26:04,VALID,999.344,VALID,0,VALID,89.7014,VALID,0,VALID,24.5989,VALID,96,VALID,0,
2011-06-20, 01:27:04,VALID,999.362,VALID,0,VALID,89.7701,VALID,0,VALID,24.5989,VALID,96,VALID,0,
2011-06-20, 01:28:04,VALID,999.371,VALID,0,VALID,89.8311,VALID,0,VALID,24.5794,VALID,96,VALID,0,
2011-06-20, 01:29:04,VALID,999.382,VALID,0,VALID,89.8769,VALID,0,VALID,24.5794,VALID,96,VALID,0,
2011-06-20, 01:30:04,VALID,999.382,VALID,0,VALID,89.8693,VALID,0,VALID,24.5794,VALID,96,VALID,0,
2011-06-20, 01:31:04,VALID,999.381,VALID,0,VALID,89.7625,VALID,0,VALID,24.5989,VALID,211,VALID,0.699609,
2011-06-20, 01:32:04,VALID,999.376,VALID,0,VALID,89.5183,VALID,0,VALID,24.5775,VALID,211,VALID,0.612891,
2011-06-20, 01:33:04,VALID,999.398,VALID,0,VALID,89.2742,VALID,0,VALID,24.638,VALID,211,VALID,0.241797,
2011-06-20, 01:34:04,VALID,999.376,VALID,0,VALID,89.0834,VALID,0,VALID,24.638,VALID,211,VALID,0,
2011-06-20, 01:35:04,VALID,999.382,VALID,0,VALID,88.9232,VALID,0,VALID,24.638,VALID,211,VALID,0.303906,
2011-06-20, 01:36:04,VALID,999.398,VALID,0,VALID,88.7477,VALID,0,VALID,24.6575,VALID,211,VALID,0.303125,
2011-06-20, 01:37:04,VALID,999.395,VALID,0,VALID,88.5951,VALID,0,VALID,24.6575,VALID,211,VALID,0,
2011-06-20, 01:38:04,VALID,999.365,VALID,0,VALID,88.4273,VALID,0,VALID,24.677,VALID,211,VALID,0.585938,
2011-06-20, 01:39:04,VALID,999.342,VALID,0,VALID,88.2289,VALID,0,VALID,24.716,VALID,211,VALID,0.0546875,
2011-06-20, 01:40:04,VALID,999.328,VALID,0,VALID,88.0153,VALID,0,VALID,24.7551,VALID,2,VALID,0.767187,
2011-06-20, 01:41:04,VALID,999.327,VALID,0,VALID,87.9085,VALID,0,VALID,24.7551,VALID,2,VALID,0.74375,
2011-06-20, 01:42:04,VALID,999.307,VALID,0,VALID,88.0077,VALID,0,VALID,24.7337,VALID,2,VALID,0.448047,
2011-06-20, 01:43:04,VALID,999.298,VALID,0,VALID,87.8093,VALID,0,VALID,24.716,VALID,2,VALID,0.39375,
2011-06-20, 01:44:04,VALID,999.287,VALID,0,VALID,87.7025,VALID,0,VALID,24.7356,VALID,42,VALID,0.398828,
2011-06-20, 01:45:04,VALID,999.292,VALID,0,VALID,87.6109,VALID,0,VALID,24.7356,VALID,42,VALID,0.496094,
2011-06-20, 01:46:04,VALID,999.318,VALID,0,VALID,87.3744,VALID,0,VALID,24.7551,VALID,114,VALID,0.826563,
2011-06-20, 01:47:04,VALID,999.3,VALID,0,VALID,87.2523,VALID,0,VALID,24.7746,VALID,113,VALID,0.709375,
2011-06-20, 01:48:04,VALID,999.305,VALID,0,VALID,86.909,VALID,0,VALID,24.7746,VALID,127,VALID,1.10078,
2011-06-20, 01:49:04,VALID,999.306,VALID,0,VALID,86.642,VALID,0,VALID,24.8136,VALID,122,VALID,1.14297,
2011-06-20, 01:50:04,VALID,999.269,VALID,0,VALID,86.6725,VALID,0,VALID,24.8136,VALID,119,VALID,1.30313,
2011-06-20, 01:51:04,VALID,999.267,VALID,0,VALID,86.764,VALID,0,VALID,24.8136,VALID,107,VALID,1.15703,
2011-06-20, 01:52:04,VALID,999.236,VALID,0,VALID,86.8174,VALID,0,VALID,24.7941,VALID,109,VALID,1.00977,
2011-06-20, 01:53:04,VALID,999.239,VALID,0,VALID,86.8327,VALID,0,VALID,24.7941,VALID,109,VALID,1.16445,
2011-06-20, 01:54:04,VALID,999.228,VALID,0,VALID,86.8709,VALID,0,VALID,24.7941,VALID,105,VALID,1.12227,
2011-06-20, 01:55:04,VALID,999.217,VALID,0,VALID,86.97,VALID,0,VALID,24.7532,VALID,95,VALID,0.918359,
2011-06-20, 01:56:04,VALID,999.205,VALID,0,VALID,87.0769,VALID,0,VALID,24.7356,VALID,96,VALID,0.899219,
2011-06-20, 01:57:04,VALID,999.219,VALID,0,VALID,87.1684,VALID,0,VALID,24.716,VALID,109,VALID,0.776172,
2011-06-20, 01:58:04,VALID,999.225,VALID,0,VALID,87.2218,VALID,0,VALID,24.6965,VALID,114,VALID,0.962891,
2011-06-20, 01:59:04,VALID,999.237,VALID,0,VALID,87.2371,VALID,0,VALID,24.677,VALID,109,VALID,0.65625,
2011-06-20, 02:00:04,VALID,999.225,VALID,0,VALID,87.2676,VALID,0,VALID,24.638,VALID,109,VALID,0.311328,
2011-06-20, 02:01:04,VALID,999.234,VALID,0,VALID,87.2905,VALID,0,VALID,24.6184,VALID,117,VALID,0.801172,
2011-06-20, 02:02:04,VALID,999.208,VALID,0,VALID,87.3286,VALID,0,VALID,24.5989,VALID,117,VALID,0.677734,
2011-06-20, 02:03:04,VALID,999.202,VALID,0,VALID,87.4202,VALID,0,VALID,24.5599,VALID,117,VALID,0.386328,
2011-06-20, 02:04:05,VALID,999.209,VALID,0,VALID,87.4736,VALID,0,VALID,24.5794,VALID,117,VALID,0.255469,
2011-06-20, 02:05:05,VALID,999.2,VALID,0,VALID,87.4812,VALID,0,VALID,24.5599,VALID,117,VALID,0.141797,
2011-06-20, 02:06:05,VALID,999.169,VALID,0,VALID,87.5346,VALID,0,VALID,24.5209,VALID,117,VALID,0.185937,
2011-06-20, 02:07:05,VALID,999.147,VALID,0,VALID,87.6262,VALID,0,VALID,24.5013,VALID,117,VALID,0,
2011-06-20, 02:08:05,VALID,999.153,VALID,0,VALID,87.6796,VALID,0,VALID,24.4818,VALID,117,VALID,0,
2011-06-20, 02:09:05,VALID,999.147,VALID,0,VALID,87.6262,VALID,0,VALID,24.4214,VALID,117,VALID,0,
2011-06-20, 02:10:05,VALID,999.161,VALID,0,VALID,87.5957,VALID,0,VALID,24.4019,VALID,121,VALID,0.439453,
2011-06-20, 02:11:05,VALID,999.193,VALID,0,VALID,87.7406,VALID,0,VALID,24.4233,VALID,174,VALID,0.860937,
2011-06-20, 02:12:05,VALID,999.156,VALID,0,VALID,87.6414,VALID,0,VALID,24.4428,VALID,162,VALID,0.569531,
2011-06-20, 02:13:05,VALID,999.196,VALID,0,VALID,87.5499,VALID,0,VALID,24.4623,VALID,162,VALID,0.569531,
2011-06-20, 02:14:05,VALID,999.142,VALID,0,VALID,87.4965,VALID,0,VALID,24.4818,VALID,80,VALID,0.465234,
2011-06-20, 02:15:05,VALID,999.196,VALID,0,VALID,87.5117,VALID,0,VALID,24.4623,VALID,80,VALID,0.496875,
2011-06-20, 02:16:05,VALID,999.184,VALID,0,VALID,87.6796,VALID,0,VALID,24.4233,VALID,80,VALID,0.462891,
2011-06-20, 02:17:05,VALID,999.185,VALID,0,VALID,87.794,VALID,0,VALID,24.4037,VALID,80,VALID,0.528125,
2011-06-20, 02:18:05,VALID,999.173,VALID,0,VALID,88.0153,VALID,0,VALID,24.3647,VALID,80,VALID,0.434375,
2011-06-20, 02:19:05,VALID,999.156,VALID,0,VALID,88.1603,VALID,0,VALID,24.3452,VALID,80,VALID,0.489453,
2011-06-20, 02:20:05,VALID,999.178,VALID,0,VALID,88.4502,VALID,0,VALID,24.3257,VALID,80,VALID,0.487891,
2011-06-20, 02:21:05,VALID,999.167,VALID,0,VALID,88.6028,VALID,0,VALID,24.3043,VALID,80,VALID,0.504297,
2011-06-20, 02:22:05,VALID,999.172,VALID,0,VALID,88.6638,VALID,0,VALID,24.3062,VALID,80,VALID,0.455469,
2011-06-20, 02:23:05,VALID,999.186,VALID,0,VALID,88.7172,VALID,0,VALID,24.2866,VALID,80,VALID,0.368359,
2011-06-20, 02:24:05,VALID,999.159,VALID,0,VALID,88.7859,VALID,0,VALID,24.2476,VALID,80,VALID,0.321875,
2011-06-20, 02:25:05,VALID,999.141,VALID,0,VALID,88.8927,VALID,0,VALID,24.2281,VALID,80,VALID,0.387109,
2011-06-20, 02:26:05,VALID,999.121,VALID,0,VALID,89.0224,VALID,0,VALID,24.2281,VALID,80,VALID,0.483984,
2011-06-20, 02:27:05,VALID,999.154,VALID,0,VALID,89.114,VALID,0,VALID,24.2476,VALID,80,VALID,0.574219,
2011-06-20, 02:28:05,VALID,999.148,VALID,0,VALID,89.0224,VALID,0,VALID,24.2671,VALID,80,VALID,0.940625,
2011-06-20, 02:29:05,VALID,999.079,VALID,0,VALID,88.9766,VALID,0,VALID,24.2866,VALID,59,VALID,0.971875,
2011-06-20, 02:30:05,VALID,999.123,VALID,0,VALID,88.6714,VALID,0,VALID,24.3062,VALID,51,VALID,1.21367,
2011-06-20, 02:31:05,VALID,999.121,VALID,0,VALID,88.6562,VALID,0,VALID,24.2671,VALID,50,VALID,1.02422,
2011-06-20, 02:32:05,VALID,999.126,VALID,0,VALID,88.7859,VALID,0,VALID,24.2281,VALID,43,VALID,1.11953,
2011-06-20, 02:33:05,VALID,999.152,VALID,0,VALID,88.9309,VALID,0,VALID,24.1891,VALID,40,VALID,0.927344,
2011-06-20, 02:34:05,VALID,999.18,VALID,0,VALID,89.0224,VALID,0,VALID,24.1305,VALID,35,VALID,0.919531,
2011-06-20, 02:35:05,VALID,999.194,VALID,0,VALID,89.175,VALID,0,VALID,24.072,VALID,35,VALID,0.778906,
2011-06-20, 02:36:05,VALID,999.239,VALID,0,VALID,89.3581,VALID,0,VALID,24.0134,VALID,35,VALID,0.828906,
2011-06-20, 02:37:05,VALID,999.214,VALID,0,VALID,89.5641,VALID,0,VALID,23.9744,VALID,35,VALID,0.902734,
2011-06-20, 02:38:05,VALID,999.211,VALID,0,VALID,89.8464,VALID,0,VALID,23.9159,VALID,21,VALID,1.03398,
2011-06-20, 02:39:05,VALID,999.193,VALID,0,VALID,90.0143,VALID,0,VALID,23.9159,VALID,21,VALID,1.025,
2011-06-20, 02:40:05,VALID,999.187,VALID,0,VALID,90.0982,VALID,0,VALID,23.9159,VALID,21,VALID,1.07383,
2011-06-20, 02:41:05,VALID,999.179,VALID,0,VALID,89.9685,VALID,0,VALID,23.8963,VALID,21,VALID,0.889063,
2011-06-20, 02:42:05,VALID,999.189,VALID,0,VALID,89.8998,VALID,0,VALID,23.8378,VALID,21,VALID,0.844922,
2011-06-20, 02:43:05,VALID,999.179,VALID,0,VALID,89.999,VALID,0,VALID,23.8378,VALID,21,VALID,1.04648,
2011-06-20, 02:44:05,VALID,999.176,VALID,0,VALID,90.1134,VALID,0,VALID,23.8378,VALID,21,VALID,1.13516,
2011-06-20, 02:45:05,VALID,999.185,VALID,0,VALID,90.0829,VALID,0,VALID,23.8573,VALID,21,VALID,0.95625,
2011-06-20, 02:46:05,VALID,999.179,VALID,0,VALID,89.9456,VALID,0,VALID,23.8573,VALID,21,VALID,0.876562,
2011-06-20, 02:47:05,VALID,999.209,VALID,0,VALID,89.854,VALID,0,VALID,23.8768,VALID,21,VALID,0.883203,
2011-06-20, 02:48:05,VALID,999.193,VALID,0,VALID,89.854,VALID,0,VALID,23.8768,VALID,52,VALID,0.910156,
2011-06-20, 02:49:05,VALID,999.211,VALID,0,VALID,89.8235,VALID,0,VALID,23.8768,VALID,55,VALID,0.930469,
2011-06-20, 02:50:05,VALID,999.173,VALID,0,VALID,89.8083,VALID,0,VALID,23.8768,VALID,55,VALID,0.820313,
2011-06-20, 02:51:05,VALID,999.167,VALID,0,VALID,89.9837,VALID,0,VALID,23.8768,VALID,63,VALID,0.847266,
2011-06-20, 02:52:05,VALID,999.178,VALID,0,VALID,90.1897,VALID,0,VALID,23.8573,VALID,64,VALID,0.835156,
2011-06-20, 02:53:05,VALID,999.11,VALID,0,VALID,90.3347,VALID,0,VALID,23.8378,VALID,64,VALID,0.778516,
2011-06-20, 02:54:05,VALID,999.094,VALID,0,VALID,90.4263,VALID,0,VALID,23.8183,VALID,64,VALID,0.701953,
2011-06-20, 02:55:05,VALID,999.074,VALID,0,VALID,90.4186,VALID,0,VALID,23.7793,VALID,64,VALID,0.422266,
2011-06-20, 02:56:05,VALID,999.088,VALID,0,VALID,90.4339,VALID,0,VALID,23.7597,VALID,64,VALID,0.172656,
2011-06-20, 02:57:05,VALID,999.096,VALID,0,VALID,90.472,VALID,0,VALID,23.742,VALID,64,VALID,0.00742187,
2011-06-20, 02:58:05,VALID,999.112,VALID,0,VALID,90.5331,VALID,0,VALID,23.6994,VALID,64,VALID,0.0804688,
2011-06-20, 02:59:05,VALID,999.081,VALID,0,VALID,90.6475,VALID,0,VALID,23.7207,VALID,64,VALID,0.195313,
2011-06-20, 03:00:05,VALID,999.12,VALID,0,VALID,90.7849,VALID,0,VALID,23.7012,VALID,64,VALID,0.0671875,
2011-06-20, 03:01:05,VALID,999.09,VALID,0,VALID,90.8383,VALID,0,VALID,23.7207,VALID,64,VALID,0.145313,
2011-06-20, 03:02:05,VALID,999.141,VALID,0,VALID,90.8917,VALID,0,VALID,23.6799,VALID,64,VALID,0.196094,
2011-06-20, 03:03:05,VALID,999.11,VALID,0,VALID,90.9146,VALID,0,VALID,23.6799,VALID,64,VALID,0.258984,
2011-06-20, 03:04:05,VALID,999.092,VALID,0,VALID,91.0061,VALID,0,VALID,23.7207,VALID,64,VALID,0.355859,
2011-06-20, 03:05:05,VALID,999.114,VALID,0,VALID,91.0595,VALID,0,VALID,23.7384,VALID,64,VALID,0.439453,
2011-06-20, 03:06:05,VALID,999.127,VALID,0,VALID,91.0519,VALID,0,VALID,23.7988,VALID,64,VALID,0.398828,
2011-06-20, 03:07:05,VALID,999.138,VALID,0,VALID,90.9298,VALID,0,VALID,23.8183,VALID,64,VALID,0.535937,
2011-06-20, 03:08:05,VALID,999.145,VALID,0,VALID,90.8459,VALID,0,VALID,23.8378,VALID,69,VALID,0.638281,
2011-06-20, 03:09:05,VALID,999.169,VALID,0,VALID,90.8001,VALID,0,VALID,23.8573,VALID,130,VALID,0.907422,
2011-06-20, 03:10:05,VALID,999.151,VALID,0,VALID,90.7391,VALID,0,VALID,23.8573,VALID,128,VALID,0.779297,
2011-06-20, 03:11:05,VALID,999.181,VALID,0,VALID,90.6399,VALID,0,VALID,23.8555,VALID,128,VALID,0.705469,
2011-06-20, 03:12:05,VALID,999.178,VALID,0,VALID,90.472,VALID,0,VALID,23.8573,VALID,128,VALID,0.589453,
2011-06-20, 03:13:05,VALID,999.156,VALID,0,VALID,90.4644,VALID,0,VALID,23.8573,VALID,128,VALID,0.638281,
2011-06-20, 03:14:05,VALID,999.148,VALID,0,VALID,90.5712,VALID,0,VALID,23.8573,VALID,128,VALID,0.592969,
2011-06-20, 03:15:05,VALID,999.096,VALID,0,VALID,90.5407,VALID,0,VALID,23.8573,VALID,128,VALID,0.726563,
2011-06-20, 03:16:05,VALID,999.135,VALID,0,VALID,90.5712,VALID,0,VALID,23.8768,VALID,113,VALID,0.647266,
2011-06-20, 03:17:05,VALID,999.121,VALID,0,VALID,90.4873,VALID,0,VALID,23.836,VALID,113,VALID,0.179688,
2011-06-20, 03:18:05,VALID,999.116,VALID,0,VALID,90.35,VALID,0,VALID,23.8378,VALID,113,VALID,0.06875,
2011-06-20, 03:19:05,VALID,999.111,VALID,0,VALID,90.35,VALID,0,VALID,23.7988,VALID,113,VALID,0.327344,
2011-06-20, 03:20:05,VALID,999.123,VALID,0,VALID,90.556,VALID,0,VALID,23.7988,VALID,113,VALID,0.217578,
2011-06-20, 03:21:05,VALID,999.124,VALID,0,VALID,90.6246,VALID,0,VALID,23.7579,VALID,113,VALID,0.122656,
2011-06-20, 03:22:05,VALID,999.09,VALID,0,VALID,90.6399,VALID,0,VALID,23.7597,VALID,113,VALID,0.227734,
2011-06-20, 03:23:05,VALID,999.057,VALID,0,VALID,90.7849,VALID,0,VALID,23.7597,VALID,113,VALID,0.497656,
2011-06-20, 03:24:05,VALID,999.048,VALID,0,VALID,90.8993,VALID,0,VALID,23.7597,VALID,88,VALID,0.633594,
2011-06-20, 03:25:05,VALID,999.018,VALID,0,VALID,90.8764,VALID,0,VALID,23.7793,VALID,88,VALID,0.609766,
2011-06-20, 03:26:05,VALID,999.033,VALID,0,VALID,90.762,VALID,0,VALID,23.7793,VALID,82,VALID,0.898438,
2011-06-20, 03:27:05,VALID,999.001,VALID,0,VALID,90.5102,VALID,0,VALID,23.7384,VALID,76,VALID,0.830469,
2011-06-20, 03:28:05,VALID,998.977,VALID,0,VALID,90.3881,VALID,0.112286,VALID,23.7402,VALID,72,VALID,0.891797,
2011-06-20, 03:29:05,VALID,998.968,VALID,0,VALID,90.4186,VALID,0,VALID,23.7207,VALID,67,VALID,0.610156,
2011-06-20, 03:30:05,VALID,998.94,VALID,0,VALID,90.472,VALID,0,VALID,23.6817,VALID,67,VALID,0.485547,
2011-06-20, 03:31:05,VALID,998.939,VALID,0,VALID,90.5788,VALID,0,VALID,23.6214,VALID,67,VALID,0.555859,
2011-06-20, 03:32:05,VALID,998.941,VALID,0,VALID,90.7009,VALID,0,VALID,23.6214,VALID,67,VALID,0.457812,
2011-06-20, 03:33:05,VALID,998.929,VALID,0,VALID,90.7238,VALID,0,VALID,23.6019,VALID,67,VALID,0.0683594,
2011-06-20, 03:34:05,VALID,998.935,VALID,0,VALID,90.7162,VALID,0,VALID,23.5823,VALID,67,VALID,0,
2011-06-20, 03:35:05,VALID,998.921,VALID,0,VALID,90.7162,VALID,0,VALID,23.5238,VALID,67,VALID,0,
2011-06-20, 03:36:05,VALID,998.918,VALID,0,VALID,90.7696,VALID,0.112286,VALID,23.5451,VALID,115,VALID,0.510938,
2011-06-20, 03:37:05,VALID,998.905,VALID,0,VALID,90.8306,VALID,0,VALID,23.5256,VALID,142,VALID,0.446094,
2011-06-20, 03:38:05,VALID,998.872,VALID,0,VALID,90.8383,VALID,0,VALID,23.5043,VALID,148,VALID,0.613281,
2011-06-20, 03:39:05,VALID,998.88,VALID,0,VALID,90.7696,VALID,0,VALID,23.5451,VALID,144,VALID,0.877344,
2011-06-20, 03:40:05,VALID,998.862,VALID,0,VALID,90.6017,VALID,0,VALID,23.5628,VALID,136,VALID,0.911719,
2011-06-20, 03:41:05,VALID,998.847,VALID,0,VALID,90.3805,VALID,0,VALID,23.6232,VALID,136,VALID,1.02109,
2011-06-20, 03:42:05,VALID,998.827,VALID,0,VALID,90.144,VALID,0.112286,VALID,23.6604,VALID,136,VALID,1.08008,
2011-06-20, 03:43:05,VALID,998.857,VALID,0,VALID,89.9151,VALID,0,VALID,23.7207,VALID,136,VALID,1.04844,
2011-06-20, 03:44:05,VALID,998.853,VALID,0,VALID,89.7472,VALID,0.112286,VALID,23.7402,VALID,136,VALID,0.917578,
2011-06-20, 03:45:05,VALID,998.856,VALID,0,VALID,89.5794,VALID,0,VALID,23.7793,VALID,136,VALID,0.727344,
2011-06-20, 03:46:05,VALID,998.869,VALID,0,VALID,89.4497,VALID,0,VALID,23.8183,VALID,136,VALID,0.641406,